CDC8987 ZGGG-RPLL

Flight info

Callsign CDC8987
Flight time 2h 18m
Altitude 24600
Route VIBOS9 VIBOS R473 SIERA/N0460F370 DCT MULET DCT SKATE V642 NOMAN A461 AVMUP W16 TADEL
Aircraft A21N/M-SDE3FGHIRWY/LB1

Departure

Time 2026-05-06 12:07
Airport Guangzhou Baiyun International Airport (ZGGG)

Arrival

Time 2026-05-06 14:26
Airport Ninoy Aquino International Airport (RPLL)
Time Latitude Longitude Altitude Speed Heading
2026-05-06 11:40 23.40133 113.30289 51 ft 0 kts 193°
2026-05-06 11:53 23.40148 113.30293 51 ft 6 kts 193°
2026-05-06 11:53 23.40201 113.30304 51 ft 6 kts 183°
2026-05-06 11:54 23.40226 113.30290 51 ft 3 kts 129°
2026-05-06 11:54 23.40236 113.30268 51 ft 3 kts 100°
2026-05-06 11:54 23.40241 113.30248 51 ft 0 kts 102°
2026-05-06 11:54 23.40241 113.30249 51 ft 0 kts 102°
2026-05-06 11:55 23.40238 113.30264 51 ft 10 kts 99°
2026-05-06 11:55 23.40294 113.30411 51 ft 27 kts 47°
2026-05-06 11:56 23.40350 113.30542 51 ft 11 kts 102°
2026-05-06 11:56 23.40324 113.30664 51 ft 24 kts 103°
2026-05-06 11:56 23.40284 113.30830 51 ft 19 kts 117°
2026-05-06 11:56 23.40203 113.30894 51 ft 13 kts 112°
2026-05-06 11:57 23.40129 113.30924 51 ft 13 kts 193°
2026-05-06 11:57 23.40028 113.30896 51 ft 17 kts 194°
2026-05-06 11:57 23.39890 113.30859 51 ft 24 kts 193°
2026-05-06 11:57 23.39714 113.30810 51 ft 27 kts 193°
2026-05-06 11:58 23.39527 113.30761 51 ft 28 kts 194°
2026-05-06 11:58 23.39330 113.30708 51 ft 29 kts 193°
2026-05-06 11:58 23.39127 113.30653 51 ft 29 kts 193°
2026-05-06 11:58 23.38927 113.30599 51 ft 29 kts 194°
2026-05-06 11:59 23.38727 113.30544 51 ft 30 kts 194°
2026-05-06 11:59 23.38523 113.30488 51 ft 30 kts 193°
2026-05-06 11:59 23.38326 113.30435 51 ft 28 kts 193°
2026-05-06 11:59 23.38131 113.30386 51 ft 26 kts 194°
2026-05-06 12:00 23.37970 113.30341 51 ft 22 kts 194°
2026-05-06 12:00 23.37845 113.30276 51 ft 19 kts 262°
2026-05-06 12:00 23.37874 113.30131 51 ft 19 kts 284°
2026-05-06 12:00 23.37906 113.29991 51 ft 18 kts 284°
2026-05-06 12:01 23.37938 113.29854 51 ft 18 kts 284°
2026-05-06 12:01 23.37969 113.29720 51 ft 18 kts 283°
2026-05-06 12:01 23.37999 113.29585 51 ft 18 kts 284°
2026-05-06 12:01 23.38030 113.29453 51 ft 17 kts 284°
2026-05-06 12:02 23.38059 113.29325 51 ft 17 kts 284°
2026-05-06 12:02 23.38088 113.29198 51 ft 17 kts 284°
2026-05-06 12:02 23.38117 113.29073 51 ft 17 kts 284°
2026-05-06 12:02 23.38146 113.28948 51 ft 16 kts 284°
2026-05-06 12:03 23.38175 113.28823 51 ft 16 kts 284°
2026-05-06 12:03 23.38197 113.28700 51 ft 16 kts 255°
2026-05-06 12:03 23.38098 113.28651 51 ft 16 kts 193°
2026-05-06 12:03 23.37989 113.28623 51 ft 16 kts 194°
2026-05-06 12:04 23.37880 113.28593 51 ft 16 kts 194°
2026-05-06 12:04 23.37770 113.28564 51 ft 16 kts 193°
2026-05-06 12:04 23.37684 113.28534 51 ft 12 kts 224°
2026-05-06 12:04 23.37679 113.28463 51 ft 0 kts 285°
2026-05-06 12:06 23.37689 113.28424 51 ft 11 kts 285°
2026-05-06 12:06 23.37718 113.28358 51 ft 7 kts 351°
2026-05-06 12:06 23.37743 113.28363 51 ft 2 kts 14°
2026-05-06 12:06 23.37861 113.28396 51 ft 50 kts 14°
2026-05-06 12:07 23.38460 113.28558 51 ft 123 kts 13°
2026-05-06 12:07 23.39501 113.28838 81 ft 178 kts 16°
2026-05-06 12:07 23.40729 113.29166 690 ft 182 kts 15°
2026-05-06 12:07 23.41943 113.29523 1402 ft 185 kts 22°
2026-05-06 12:08 23.43146 113.30054 2081 ft 190 kts 25°
2026-05-06 12:08 23.44489 113.30327 2561 ft 210 kts 352°
2026-05-06 12:08 23.45894 113.29752 3015 ft 226 kts 335°
2026-05-06 12:08 23.47393 113.29014 3416 ft 247 kts 336°
2026-05-06 12:09 23.49016 113.28242 4013 ft 260 kts 336°
2026-05-06 12:09 23.50667 113.27471 4898 ft 260 kts 335°
2026-05-06 12:09 23.52326 113.26710 5758 ft 261 kts 336°
2026-05-06 12:09 23.54027 113.26010 6530 ft 264 kts 333°
2026-05-06 12:10 23.55480 113.24766 6976 ft 275 kts 301°
2026-05-06 12:10 23.56134 113.22817 7634 ft 277 kts 274°
2026-05-06 12:10 23.55925 113.20770 8392 ft 277 kts 249°
2026-05-06 12:10 23.54937 113.18971 9127 ft 279 kts 234°
2026-05-06 12:11 23.53791 113.17278 9808 ft 283 kts 235°
2026-05-06 12:11 23.52621 113.15525 10413 ft 290 kts 235°
2026-05-06 12:11 23.51398 113.13692 10747 ft 306 kts 235°
2026-05-06 12:11 23.50127 113.11787 11031 ft 323 kts 235°
2026-05-06 12:12 23.48673 113.09816 11300 ft 341 kts 225°
2026-05-06 12:12 23.46631 113.08408 11556 ft 361 kts 204°
2026-05-06 12:12 23.44086 113.07880 11803 ft 380 kts 184°
2026-05-06 12:12 23.41382 113.07910 12057 ft 395 kts 181°
2026-05-06 12:13 23.38595 113.07956 12284 ft 408 kts 181°
2026-05-06 12:13 23.35714 113.07990 12629 ft 417 kts 181°
2026-05-06 12:13 23.32810 113.08014 13134 ft 421 kts 181°
2026-05-06 12:13 23.29844 113.08047 13669 ft 423 kts 180°
2026-05-06 12:14 23.26899 113.08381 14178 ft 428 kts 172°
2026-05-06 12:14 23.24025 113.09132 14685 ft 432 kts 165°
2026-05-06 12:14 23.21167 113.10297 15187 ft 435 kts 160°
2026-05-06 12:14 23.18374 113.11581 15643 ft 439 kts 159°
2026-05-06 12:15 23.15553 113.12905 16077 ft 442 kts 159°
2026-05-06 12:15 23.12739 113.14223 16518 ft 445 kts 159°
2026-05-06 12:15 23.09862 113.15559 16943 ft 447 kts 159°
2026-05-06 12:15 23.06989 113.16884 17351 ft 450 kts 159°
2026-05-06 12:16 23.04115 113.18202 17749 ft 453 kts 160°
2026-05-06 12:16 23.01164 113.19428 18139 ft 454 kts 163°
2026-05-06 12:16 22.98132 113.20506 18528 ft 456 kts 165°
2026-05-06 12:16 22.95106 113.21549 18911 ft 459 kts 165°
2026-05-06 12:17 22.92065 113.22591 19286 ft 461 kts 165°
2026-05-06 12:17 22.88963 113.23654 19661 ft 463 kts 165°
2026-05-06 12:17 22.85904 113.24705 20021 ft 466 kts 165°
2026-05-06 12:17 22.82803 113.25771 20373 ft 468 kts 165°
2026-05-06 12:18 22.79675 113.26845 20720 ft 470 kts 165°
2026-05-06 12:18 22.76579 113.27910 21062 ft 472 kts 165°
2026-05-06 12:18 22.73441 113.28988 21393 ft 474 kts 165°
2026-05-06 12:18 22.70274 113.30076 21704 ft 477 kts 165°
2026-05-06 12:19 22.67102 113.31165 22003 ft 479 kts 165°
2026-05-06 12:19 22.63894 113.32265 22304 ft 482 kts 165°
2026-05-06 12:19 22.60722 113.33353 22597 ft 484 kts 165°
2026-05-06 12:19 22.57473 113.34467 22890 ft 486 kts 165°
2026-05-06 12:20 22.54258 113.35571 23173 ft 489 kts 165°
2026-05-06 12:20 22.50977 113.36697 23446 ft 491 kts 165°
2026-05-06 12:20 22.47714 113.37818 23710 ft 494 kts 164°
2026-05-06 12:20 22.44430 113.38946 23969 ft 496 kts 164°
2026-05-06 12:21 22.41152 113.40072 24220 ft 498 kts 164°
2026-05-06 12:21 22.37830 113.41213 24452 ft 500 kts 164°
2026-05-06 12:21 22.34513 113.42352 24530 ft 502 kts 164°
2026-05-06 12:21 22.31169 113.43501 24535 ft 501 kts 164°
2026-05-06 12:22 22.27865 113.44636 24540 ft 501 kts 164°
2026-05-06 12:22 22.24508 113.45785 24541 ft 501 kts 164°
2026-05-06 12:22 22.21188 113.46932 24697 ft 502 kts 163°
2026-05-06 12:22 22.17888 113.48133 25331 ft 495 kts 162°
2026-05-06 12:23 22.14678 113.49329 25919 ft 490 kts 162°
2026-05-06 12:23 22.11441 113.50538 26279 ft 490 kts 162°
2026-05-06 12:23 22.08204 113.51740 26576 ft 491 kts 162°
2026-05-06 12:23 22.04961 113.52939 26913 ft 491 kts 162°
2026-05-06 12:24 22.01743 113.54168 27269 ft 492 kts 160°
2026-05-06 12:24 21.98599 113.55561 27634 ft 492 kts 157°
2026-05-06 12:24 21.95515 113.57154 28012 ft 492 kts 154°
2026-05-06 12:24 21.92494 113.58933 28365 ft 492 kts 151°
2026-05-06 12:25 21.89517 113.60754 28711 ft 492 kts 151°
2026-05-06 12:25 21.86545 113.62581 29038 ft 492 kts 151°
2026-05-06 12:25 21.83593 113.64396 29378 ft 492 kts 151°
2026-05-06 12:25 21.80600 113.66231 29713 ft 491 kts 152°
2026-05-06 12:26 21.77618 113.68053 30044 ft 491 kts 152°
2026-05-06 12:26 21.74647 113.69866 30378 ft 490 kts 152°
2026-05-06 12:26 21.71702 113.71660 30696 ft 490 kts 152°
2026-05-06 12:26 21.68741 113.73466 31019 ft 490 kts 151°
2026-05-06 12:27 21.65911 113.75545 31314 ft 491 kts 142°
2026-05-06 12:27 21.63429 113.78062 31600 ft 492 kts 133°
2026-05-06 12:27 21.61338 113.80978 31883 ft 493 kts 123°
2026-05-06 12:27 21.59716 113.84164 32165 ft 492 kts 114°
2026-05-06 12:28 21.58556 113.87637 32456 ft 491 kts 104°
2026-05-06 12:28 21.57918 113.91203 32740 ft 489 kts 95°
2026-05-06 12:28 21.57707 113.94855 33058 ft 488 kts 90°
2026-05-06 12:28 21.57602 113.98507 33374 ft 487 kts 90°
2026-05-06 12:29 21.57513 114.02113 33678 ft 487 kts 90°
2026-05-06 12:29 21.57413 114.05756 33997 ft 486 kts 90°
2026-05-06 12:29 21.57303 114.09352 34305 ft 485 kts 90°
2026-05-06 12:29 21.57184 114.12935 34585 ft 484 kts 90°
2026-05-06 12:30 21.57057 114.16567 34867 ft 483 kts 90°
2026-05-06 12:30 21.56928 114.20129 35130 ft 483 kts 90°
2026-05-06 12:30 21.56796 114.23753 35368 ft 483 kts 90°
2026-05-06 12:30 21.56664 114.27318 35606 ft 482 kts 90°
2026-05-06 12:31 21.56531 114.30885 35833 ft 482 kts 91°
2026-05-06 12:31 21.56395 114.34502 36048 ft 481 kts 91°
2026-05-06 12:31 21.56260 114.38081 36236 ft 482 kts 91°
2026-05-06 12:31 21.56123 114.41651 36420 ft 482 kts 90°
2026-05-06 12:32 21.55986 114.45229 36600 ft 482 kts 90°
2026-05-06 12:32 21.55847 114.48838 36772 ft 482 kts 90°
2026-05-06 12:32 21.55708 114.52412 36937 ft 482 kts 90°
2026-05-06 12:32 21.55570 114.55981 36951 ft 483 kts 90°
2026-05-06 12:33 21.55287 114.63203 36955 ft 483 kts 90°
2026-05-06 12:33 21.55003 114.70399 36959 ft 483 kts 91°
2026-05-06 12:34 21.54716 114.77554 36957 ft 483 kts 91°
2026-05-06 12:34 21.54424 114.84764 36959 ft 484 kts 91°
2026-05-06 12:35 21.54131 114.91939 36964 ft 483 kts 91°
2026-05-06 12:35 21.53833 114.99159 36959 ft 483 kts 91°
2026-05-06 12:36 21.53419 115.06335 36963 ft 484 kts 96°
2026-05-06 12:36 21.51912 115.13320 36966 ft 485 kts 108°
2026-05-06 12:37 21.49084 115.19894 36967 ft 485 kts 121°
2026-05-06 12:37 21.45206 115.25762 36966 ft 485 kts 128°
2026-05-06 12:38 21.41055 115.31499 36961 ft 485 kts 128°
2026-05-06 12:38 21.36950 115.37203 36956 ft 485 kts 128°
2026-05-06 12:39 21.32823 115.42970 36956 ft 485 kts 128°
2026-05-06 12:39 21.28741 115.48682 36953 ft 484 kts 128°
2026-05-06 12:40 21.24639 115.54420 36956 ft 484 kts 128°
2026-05-06 12:40 21.20563 115.60114 36952 ft 484 kts 128°
2026-05-06 12:41 21.16474 115.65820 36945 ft 483 kts 128°
2026-05-06 12:41 21.12398 115.71504 36946 ft 483 kts 128°
2026-05-06 12:42 21.08293 115.77222 36947 ft 484 kts 128°
2026-05-06 12:42 21.04211 115.82905 36945 ft 484 kts 128°
2026-05-06 12:43 21.00091 115.88635 36945 ft 484 kts 128°
2026-05-06 12:43 20.95984 115.94342 36944 ft 484 kts 128°
2026-05-06 12:44 20.91911 115.99995 36944 ft 483 kts 128°
2026-05-06 12:44 20.87631 116.05548 36944 ft 482 kts 133°
2026-05-06 12:45 20.82849 116.10507 36944 ft 481 kts 140°
2026-05-06 12:46 20.74756 116.16780 36945 ft 479 kts 149°
2026-05-06 12:46 20.69113 116.20579 36942 ft 479 kts 149°
2026-05-06 12:47 20.63457 116.24393 36943 ft 479 kts 149°
2026-05-06 12:47 20.57798 116.28218 36945 ft 480 kts 149°
2026-05-06 12:48 20.52180 116.32015 36948 ft 480 kts 149°
2026-05-06 12:48 20.46522 116.35837 36952 ft 480 kts 149°
2026-05-06 12:49 20.40891 116.39638 36950 ft 479 kts 149°
2026-05-06 12:49 20.35264 116.43433 36949 ft 479 kts 149°
2026-05-06 12:50 20.29645 116.47219 36951 ft 478 kts 149°
2026-05-06 12:50 20.24027 116.51002 36951 ft 478 kts 148°
2026-05-06 12:51 20.18403 116.54787 36948 ft 478 kts 148°
2026-05-06 12:51 20.12792 116.58562 36945 ft 478 kts 148°
2026-05-06 12:52 20.07155 116.62349 36943 ft 478 kts 149°
2026-05-06 12:52 20.01669 116.66394 36942 ft 479 kts 143°
2026-05-06 12:53 19.96670 116.71048 36943 ft 480 kts 136°
2026-05-06 12:53 19.92112 116.76216 36944 ft 480 kts 133°
2026-05-06 12:54 19.87625 116.81453 36943 ft 479 kts 133°
2026-05-06 12:54 19.83143 116.86663 36944 ft 479 kts 133°
2026-05-06 12:55 19.78635 116.91888 36944 ft 479 kts 133°
2026-05-06 12:55 19.74130 116.97100 36943 ft 479 kts 133°
2026-05-06 12:56 19.69655 117.02273 36943 ft 478 kts 133°
2026-05-06 12:56 19.65139 117.07487 36939 ft 478 kts 133°
2026-05-06 12:57 19.60652 117.12664 36937 ft 478 kts 133°
2026-05-06 12:57 19.56158 117.17843 36935 ft 478 kts 133°
2026-05-06 12:58 19.51641 117.23044 36936 ft 478 kts 133°
2026-05-06 12:58 19.47145 117.28217 36935 ft 477 kts 133°
2026-05-06 12:59 19.42656 117.33379 36938 ft 478 kts 133°
2026-05-06 12:59 19.38164 117.38537 36938 ft 477 kts 133°
2026-05-06 13:00 19.33680 117.43683 36932 ft 477 kts 133°
2026-05-06 13:00 19.29179 117.48844 36937 ft 477 kts 133°
2026-05-06 13:01 19.24674 117.54006 36935 ft 477 kts 133°
2026-05-06 13:01 19.20194 117.59135 36928 ft 477 kts 133°
2026-05-06 13:02 19.15678 117.64301 36925 ft 476 kts 133°
2026-05-06 13:02 19.11181 117.69443 36922 ft 476 kts 133°
2026-05-06 13:03 19.06702 117.74560 36925 ft 476 kts 133°
2026-05-06 13:03 19.02221 117.79673 36920 ft 476 kts 133°
2026-05-06 13:04 18.97694 117.84820 36922 ft 475 kts 133°
2026-05-06 13:04 18.93220 117.89906 36922 ft 475 kts 133°
2026-05-06 13:05 18.88688 117.95060 36922 ft 476 kts 133°
2026-05-06 13:05 18.84209 118.00151 36922 ft 476 kts 133°
2026-05-06 13:06 18.79687 118.05285 36921 ft 476 kts 133°
2026-05-06 13:06 18.75201 118.10375 36923 ft 475 kts 133°
2026-05-06 13:07 18.70723 118.15452 36928 ft 474 kts 133°
2026-05-06 13:07 18.66211 118.20564 36933 ft 474 kts 133°
2026-05-06 13:08 18.61740 118.25623 36933 ft 474 kts 133°
2026-05-06 13:08 18.57237 118.30716 36931 ft 474 kts 133°
2026-05-06 13:09 18.52747 118.35789 36930 ft 474 kts 133°
2026-05-06 13:09 18.48246 118.40871 36928 ft 474 kts 133°
2026-05-06 13:10 18.43743 118.45953 36930 ft 474 kts 133°
2026-05-06 13:10 18.39265 118.50999 36931 ft 473 kts 133°
2026-05-06 13:11 18.34766 118.56066 36929 ft 473 kts 133°
2026-05-06 13:11 18.30301 118.61092 36929 ft 472 kts 133°
2026-05-06 13:12 18.25795 118.66160 36930 ft 472 kts 133°
2026-05-06 13:12 18.21333 118.71174 36932 ft 472 kts 133°
2026-05-06 13:13 18.16827 118.76235 36930 ft 472 kts 133°
2026-05-06 13:13 18.12343 118.81270 36927 ft 472 kts 133°
2026-05-06 13:14 18.07874 118.86282 36928 ft 471 kts 133°
2026-05-06 13:14 18.03334 118.91233 36926 ft 471 kts 137°
2026-05-06 13:15 17.98371 118.95685 36924 ft 470 kts 143°
2026-05-06 13:15 17.92958 118.99521 36924 ft 469 kts 150°
2026-05-06 13:16 17.87262 119.02858 36924 ft 469 kts 152°
2026-05-06 13:16 17.81554 119.06151 36922 ft 468 kts 152°
2026-05-06 13:17 17.75847 119.09448 36918 ft 468 kts 152°
2026-05-06 13:17 17.70116 119.12762 36921 ft 468 kts 152°
2026-05-06 13:18 17.64409 119.16062 36922 ft 467 kts 152°
2026-05-06 13:18 17.58725 119.19347 36924 ft 467 kts 152°
2026-05-06 13:19 17.53030 119.22637 36924 ft 467 kts 152°
2026-05-06 13:19 17.47350 119.25915 36922 ft 467 kts 152°
2026-05-06 13:20 17.41658 119.29198 36920 ft 466 kts 152°
2026-05-06 13:20 17.35971 119.32475 36921 ft 466 kts 152°
2026-05-06 13:21 17.30295 119.35744 36922 ft 466 kts 152°
2026-05-06 13:21 17.24599 119.39021 36920 ft 465 kts 152°
2026-05-06 13:22 17.18959 119.42265 36918 ft 464 kts 152°
2026-05-06 13:22 17.13295 119.45520 36916 ft 464 kts 152°
2026-05-06 13:23 17.07617 119.48782 36919 ft 463 kts 152°
2026-05-06 13:23 17.01968 119.52023 36923 ft 463 kts 152°
2026-05-06 13:24 16.96332 119.55254 36923 ft 463 kts 152°
2026-05-06 13:24 16.90703 119.58480 36923 ft 463 kts 152°
2026-05-06 13:25 16.85038 119.61725 36922 ft 464 kts 152°
2026-05-06 13:25 16.79377 119.64965 36924 ft 464 kts 152°
2026-05-06 13:26 16.73712 119.68205 36923 ft 463 kts 152°
2026-05-06 13:26 16.68052 119.71439 36921 ft 463 kts 152°
2026-05-06 13:27 16.62404 119.74665 36918 ft 462 kts 152°
2026-05-06 13:27 16.56757 119.77888 36915 ft 462 kts 152°
2026-05-06 13:28 16.51116 119.81106 36914 ft 462 kts 152°
2026-05-06 13:28 16.45475 119.84322 36913 ft 463 kts 152°
2026-05-06 13:29 16.39807 119.87550 36917 ft 463 kts 152°
2026-05-06 13:29 16.34195 119.90744 36919 ft 462 kts 152°
2026-05-06 13:30 16.28553 119.93955 36918 ft 462 kts 152°
2026-05-06 13:30 16.22906 119.97165 36918 ft 461 kts 152°
2026-05-06 13:31 16.17246 120.00378 36925 ft 461 kts 152°
2026-05-06 13:31 16.11615 120.03576 36933 ft 461 kts 152°
2026-05-06 13:32 16.06012 120.06757 36944 ft 462 kts 152°
2026-05-06 13:32 16.00355 120.09965 36953 ft 462 kts 152°
2026-05-06 13:32 15.97513 120.11577 36612 ft 461 kts 152°
2026-05-06 13:33 15.94735 120.13151 35598 ft 461 kts 152°
2026-05-06 13:33 15.91921 120.14745 34457 ft 458 kts 152°
2026-05-06 13:33 15.89108 120.16337 33723 ft 457 kts 151°
2026-05-06 13:33 15.86332 120.17908 32993 ft 459 kts 151°
2026-05-06 13:34 15.83521 120.19499 32288 ft 459 kts 151°
2026-05-06 13:34 15.80720 120.21087 31611 ft 457 kts 151°
2026-05-06 13:34 15.77920 120.22672 30921 ft 461 kts 151°
2026-05-06 13:34 15.75009 120.24105 30198 ft 462 kts 160°
2026-05-06 13:35 15.71899 120.24876 29780 ft 460 kts 174°
2026-05-06 13:35 15.68690 120.24915 29829 ft 461 kts 186°
2026-05-06 13:35 15.65566 120.24288 29656 ft 461 kts 197°
2026-05-06 13:35 15.62625 120.23009 29407 ft 459 kts 209°
2026-05-06 13:36 15.59984 120.21102 29156 ft 459 kts 221°
2026-05-06 13:36 15.57820 120.18697 28906 ft 458 kts 233°
2026-05-06 13:36 15.56187 120.15865 28658 ft 458 kts 245°
2026-05-06 13:36 15.55170 120.12753 28410 ft 459 kts 257°
2026-05-06 13:37 15.54806 120.09478 28163 ft 459 kts 269°
2026-05-06 13:37 15.55116 120.06201 27914 ft 460 kts 281°
2026-05-06 13:37 15.56036 120.03039 27674 ft 461 kts 290°
2026-05-06 13:37 15.57388 120.00035 27415 ft 461 kts 301°
2026-05-06 13:38 15.59343 119.97440 27150 ft 462 kts 317°
2026-05-06 13:38 15.62030 119.95625 26912 ft 463 kts 334°
2026-05-06 13:38 15.65101 119.94518 26657 ft 464 kts 347°
2026-05-06 13:38 15.68309 119.94266 26404 ft 466 kts
2026-05-06 13:39 15.71468 119.94992 26192 ft 467 kts 21°
2026-05-06 13:39 15.74317 119.96677 26189 ft 468 kts 38°
2026-05-06 13:39 15.76551 119.99117 26189 ft 469 kts 54°
2026-05-06 13:39 15.78020 120.02124 26187 ft 470 kts 71°
2026-05-06 13:40 15.78591 120.05429 26187 ft 470 kts 88°
2026-05-06 13:40 15.78219 120.08826 26186 ft 471 kts 104°
2026-05-06 13:40 15.76949 120.11922 26186 ft 471 kts 121°
2026-05-06 13:40 15.74886 120.14541 26193 ft 471 kts 135°
2026-05-06 13:41 15.72503 120.16869 26199 ft 471 kts 137°
2026-05-06 13:41 15.70081 120.19214 26106 ft 472 kts 137°
2026-05-06 13:41 15.67704 120.21527 25857 ft 472 kts 136°
2026-05-06 13:41 15.65322 120.23860 25610 ft 472 kts 136°
2026-05-06 13:42 15.62932 120.26213 25362 ft 473 kts 136°
2026-05-06 13:42 15.60567 120.28547 25108 ft 468 kts 136°
2026-05-06 13:42 15.58216 120.30868 24735 ft 457 kts 136°
2026-05-06 13:42 15.55955 120.33101 24375 ft 447 kts 136°
2026-05-06 13:43 15.53694 120.35310 24012 ft 438 kts 137°
2026-05-06 13:43 15.51378 120.37273 23664 ft 429 kts 143°
2026-05-06 13:43 15.48935 120.38989 23323 ft 421 kts 148°
2026-05-06 13:43 15.46414 120.40477 22988 ft 413 kts 150°
2026-05-06 13:44 15.43905 120.41882 22655 ft 405 kts 152°
2026-05-06 13:44 15.41377 120.43105 22332 ft 398 kts 156°
2026-05-06 13:44 15.38796 120.44109 22013 ft 391 kts 161°
2026-05-06 13:44 15.36212 120.44948 21698 ft 385 kts 162°
2026-05-06 13:45 15.33654 120.45756 21382 ft 378 kts 162°
2026-05-06 13:45 15.28693 120.47319 20751 ft 365 kts 162°
2026-05-06 13:45 15.26279 120.48083 20440 ft 359 kts 162°
2026-05-06 13:46 15.23940 120.48825 20200 ft 352 kts 162°
2026-05-06 13:46 15.21588 120.49571 19952 ft 348 kts 162°
2026-05-06 13:46 15.19282 120.50303 19712 ft 347 kts 162°
2026-05-06 13:46 15.16962 120.51040 19472 ft 346 kts 162°
2026-05-06 13:47 15.14674 120.51766 19234 ft 344 kts 162°
2026-05-06 13:47 15.12396 120.52490 18998 ft 343 kts 162°
2026-05-06 13:47 15.10085 120.53223 18763 ft 342 kts 162°
2026-05-06 13:47 15.07822 120.53941 18523 ft 340 kts 162°
2026-05-06 13:48 15.05556 120.54660 18311 ft 339 kts 161°
2026-05-06 13:48 15.03303 120.55375 18094 ft 338 kts 162°
2026-05-06 13:48 15.01057 120.56087 17872 ft 337 kts 161°
2026-05-06 13:48 14.98813 120.56797 17652 ft 337 kts 161°
2026-05-06 13:49 14.96546 120.57516 17417 ft 336 kts 161°
2026-05-06 13:49 14.94318 120.58221 17201 ft 336 kts 161°
2026-05-06 13:49 14.92095 120.58923 16890 ft 334 kts 161°
2026-05-06 13:49 14.89851 120.59632 16519 ft 332 kts 161°
2026-05-06 13:50 14.87658 120.60332 16141 ft 330 kts 161°
2026-05-06 13:50 14.85465 120.61032 15780 ft 327 kts 161°
2026-05-06 13:50 14.83302 120.61725 15413 ft 324 kts 161°
2026-05-06 13:50 14.81143 120.62414 15035 ft 322 kts 161°
2026-05-06 13:51 14.78997 120.63097 14649 ft 320 kts 161°
2026-05-06 13:51 14.76873 120.63770 14261 ft 318 kts 161°
2026-05-06 13:51 14.74771 120.64438 13888 ft 317 kts 161°
2026-05-06 13:51 14.72655 120.65105 13492 ft 315 kts 161°
2026-05-06 13:52 14.70559 120.65762 13111 ft 314 kts 161°
2026-05-06 13:52 14.68472 120.66410 12710 ft 309 kts 161°
2026-05-06 13:52 14.66441 120.67033 12102 ft 307 kts 161°
2026-05-06 13:52 14.64388 120.67651 11427 ft 305 kts 161°
2026-05-06 13:53 14.62353 120.68257 10778 ft 302 kts 161°
2026-05-06 13:53 14.60345 120.68842 10136 ft 299 kts 161°
2026-05-06 13:53 14.58366 120.69406 9490 ft 296 kts 161°
2026-05-06 13:53 14.56368 120.69973 8820 ft 293 kts 161°
2026-05-06 13:54 14.54418 120.70531 8173 ft 290 kts 161°
2026-05-06 13:54 14.52510 120.71086 7534 ft 287 kts 161°
2026-05-06 13:54 14.50595 120.71646 6885 ft 284 kts 161°
2026-05-06 13:54 14.48694 120.72205 6239 ft 282 kts 161°
2026-05-06 13:55 14.46807 120.72702 5586 ft 281 kts 171°
2026-05-06 13:55 14.44876 120.72550 4930 ft 283 kts 192°
2026-05-06 13:55 14.42979 120.71976 4312 ft 280 kts 197°
2026-05-06 13:55 14.41123 120.71508 3679 ft 275 kts 180°
2026-05-06 13:56 14.39280 120.71876 3193 ft 266 kts 150°
2026-05-06 13:56 14.37901 120.73095 3014 ft 261 kts 121°
2026-05-06 13:56 14.37288 120.74831 3016 ft 259 kts 95°
2026-05-06 13:56 14.37319 120.76660 3011 ft 252 kts 80°
2026-05-06 13:57 14.37788 120.78339 3007 ft 240 kts 66°
2026-05-06 13:57 14.38544 120.79870 3008 ft 236 kts 59°
2026-05-06 13:57 14.39340 120.81259 2984 ft 217 kts 58°
2026-05-06 13:57 14.40105 120.82581 2992 ft 212 kts 59°
2026-05-06 13:58 14.40853 120.83898 3019 ft 209 kts 59°
2026-05-06 13:58 14.41540 120.85130 3080 ft 189 kts 59°
2026-05-06 13:58 14.42166 120.86261 2868 ft 173 kts 59°
2026-05-06 13:58 14.42732 120.87287 2706 ft 155 kts 60°
2026-05-06 13:59 14.43244 120.88213 2494 ft 143 kts 60°
2026-05-06 13:59 14.43733 120.89098 2312 ft 142 kts 60°
2026-05-06 13:59 14.44226 120.89990 2129 ft 142 kts 60°
2026-05-06 13:59 14.44712 120.90868 1948 ft 141 kts 60°
2026-05-06 14:00 14.45199 120.91747 1767 ft 141 kts 60°
2026-05-06 14:00 14.45686 120.92627 1587 ft 140 kts 60°
2026-05-06 14:00 14.46166 120.93495 1414 ft 140 kts 60°
2026-05-06 14:00 14.46652 120.94370 1239 ft 140 kts 60°
2026-05-06 14:01 14.47135 120.95240 1065 ft 139 kts 62°
2026-05-06 14:01 14.47621 120.96115 882 ft 139 kts 62°
2026-05-06 14:01 14.47978 120.96757 757 ft 140 kts 61°
2026-05-06 14:01 14.48460 120.97609 558 ft 140 kts 62°
2026-05-06 14:02 14.48937 120.98483 405 ft 138 kts 62°
2026-05-06 14:02 14.49424 120.99342 244 ft 139 kts 62°
2026-05-06 14:02 14.49903 121.00214 64 ft 138 kts 64°
2026-05-06 14:02 14.50386 121.01093 370 ft 146 kts 62°
2026-05-06 14:03 14.50878 121.01983 1046 ft 145 kts 62°
2026-05-06 14:03 14.51363 121.02882 1711 ft 145 kts 62°
2026-05-06 14:03 14.51825 121.03798 2242 ft 147 kts 65°
2026-05-06 14:03 14.51914 121.04880 2509 ft 164 kts 105°
2026-05-06 14:04 14.51175 121.05831 2765 ft 185 kts 140°
2026-05-06 14:04 14.50020 121.06609 3123 ft 207 kts 146°
2026-05-06 14:04 14.48740 121.07392 3578 ft 226 kts 147°
2026-05-06 14:04 14.47304 121.08257 4112 ft 244 kts 147°
2026-05-06 14:05 14.45849 121.09126 4668 ft 244 kts 147°
2026-05-06 14:05 14.44687 121.09817 4923 ft 245 kts 147°
2026-05-06 14:05 14.43205 121.10699 5020 ft 245 kts 147°
2026-05-06 14:05 14.41712 121.11584 5026 ft 244 kts 147°
2026-05-06 14:06 14.40249 121.12453 5003 ft 244 kts 147°
2026-05-06 14:06 14.38755 121.13339 5025 ft 244 kts 147°
2026-05-06 14:06 14.37279 121.14215 5039 ft 244 kts 147°
2026-05-06 14:06 14.35818 121.15083 5049 ft 244 kts 147°
2026-05-06 14:07 14.34328 121.15964 5030 ft 244 kts 147°
2026-05-06 14:07 14.32869 121.16828 5031 ft 244 kts 147°
2026-05-06 14:07 14.31391 121.17704 5024 ft 244 kts 147°
2026-05-06 14:07 14.29911 121.18583 5018 ft 244 kts 147°
2026-05-06 14:08 14.28346 121.19302 5004 ft 247 kts 167°
2026-05-06 14:08 14.26640 121.19204 5017 ft 251 kts 198°
2026-05-06 14:08 14.25163 121.18225 5022 ft 253 kts 229°
2026-05-06 14:08 14.24229 121.16683 5027 ft 254 kts 244°
2026-05-06 14:09 14.23496 121.15038 5033 ft 254 kts 247°
2026-05-06 14:09 14.22796 121.13371 5041 ft 255 kts 247°
2026-05-06 14:09 14.22102 121.11700 5036 ft 254 kts 247°
2026-05-06 14:09 14.21408 121.10024 5034 ft 254 kts 247°
2026-05-06 14:10 14.20714 121.08347 5037 ft 254 kts 247°
2026-05-06 14:10 14.20016 121.06652 5041 ft 254 kts 247°
2026-05-06 14:10 14.19333 121.04994 5043 ft 254 kts 247°
2026-05-06 14:10 14.18640 121.03308 5041 ft 254 kts 247°
2026-05-06 14:11 14.17951 121.01631 5035 ft 254 kts 248°
2026-05-06 14:11 14.17263 120.99960 5030 ft 254 kts 248°
2026-05-06 14:11 14.16569 120.98280 5030 ft 254 kts 247°
2026-05-06 14:11 14.15876 120.96602 5027 ft 255 kts 248°
2026-05-06 14:12 14.15179 120.94916 5030 ft 254 kts 247°
2026-05-06 14:12 14.14481 120.93220 5031 ft 254 kts 247°
2026-05-06 14:12 14.13789 120.91531 5033 ft 255 kts 247°
2026-05-06 14:12 14.13101 120.89841 5029 ft 255 kts 247°
2026-05-06 14:13 14.12423 120.88173 5030 ft 255 kts 248°
2026-05-06 14:13 14.11737 120.86483 5033 ft 255 kts 248°
2026-05-06 14:13 14.11058 120.84808 5032 ft 255 kts 248°
2026-05-06 14:13 14.10372 120.83120 5025 ft 255 kts 248°
2026-05-06 14:14 14.09769 120.81403 5011 ft 255 kts 261°
2026-05-06 14:14 14.09885 120.79610 5015 ft 251 kts 292°
2026-05-06 14:14 14.10831 120.78140 5022 ft 246 kts 320°
2026-05-06 14:14 14.12161 120.77013 5023 ft 245 kts 326°
2026-05-06 14:15 14.13533 120.75982 5016 ft 245 kts 327°
2026-05-06 14:15 14.14918 120.74961 5016 ft 245 kts 327°
2026-05-06 14:15 14.16320 120.73936 5016 ft 245 kts 327°
2026-05-06 14:15 14.17716 120.72917 5014 ft 245 kts 327°
2026-05-06 14:16 14.19110 120.71901 5012 ft 245 kts 327°
2026-05-06 14:16 14.20512 120.70880 5016 ft 245 kts 328°
2026-05-06 14:16 14.21899 120.69867 5017 ft 245 kts 327°
2026-05-06 14:16 14.23292 120.68854 5019 ft 245 kts 327°
2026-05-06 14:17 14.24755 120.67995 5003 ft 240 kts 347°
2026-05-06 14:17 14.26392 120.67936 5011 ft 235 kts 17°
2026-05-06 14:17 14.27936 120.68507 5023 ft 233 kts 26°
2026-05-06 14:17 14.29384 120.69183 5008 ft 220 kts 27°
2026-05-06 14:18 14.30747 120.69845 5014 ft 217 kts 27°
2026-05-06 14:18 14.32112 120.70530 5014 ft 216 kts 33°
2026-05-06 14:18 14.33325 120.71435 5019 ft 215 kts 42°
2026-05-06 14:18 14.34370 120.72565 5023 ft 215 kts 53°
2026-05-06 14:19 14.35217 120.73834 5025 ft 215 kts 58°
2026-05-06 14:19 14.35986 120.75143 5025 ft 215 kts 59°
2026-05-06 14:19 14.36739 120.76479 4905 ft 215 kts 60°
2026-05-06 14:19 14.37489 120.77827 4638 ft 215 kts 60°
2026-05-06 14:20 14.38224 120.79156 4364 ft 214 kts 60°
2026-05-06 14:20 14.38957 120.80482 4090 ft 212 kts 60°
2026-05-06 14:20 14.39667 120.81768 3916 ft 200 kts 60°
2026-05-06 14:20 14.40362 120.83028 3636 ft 204 kts 60°
2026-05-06 14:21 14.41054 120.84279 3341 ft 195 kts 59°
2026-05-06 14:21 14.41701 120.85448 3069 ft 184 kts 59°
2026-05-06 14:21 14.42333 120.86588 2824 ft 184 kts 59°
2026-05-06 14:21 14.42967 120.87732 2583 ft 183 kts 60°
2026-05-06 14:22 14.43603 120.88876 2362 ft 183 kts 60°
2026-05-06 14:22 14.44212 120.89975 2119 ft 170 kts 60°
2026-05-06 14:22 14.44782 120.91003 1897 ft 158 kts 59°
2026-05-06 14:22 14.45313 120.91959 1719 ft 149 kts 60°
2026-05-06 14:23 14.45807 120.92850 1544 ft 141 kts 60°
2026-05-06 14:23 14.46292 120.93723 1370 ft 139 kts 60°
2026-05-06 14:23 14.46775 120.94592 1199 ft 139 kts 62°
2026-05-06 14:23 14.47256 120.95460 1028 ft 139 kts 60°
2026-05-06 14:24 14.47738 120.96327 850 ft 139 kts 60°
2026-05-06 14:24 14.48215 120.97186 672 ft 138 kts 61°
2026-05-06 14:24 14.48688 120.98042 477 ft 138 kts 63°
2026-05-06 14:24 14.49178 120.98902 308 ft 139 kts 63°
2026-05-06 14:25 14.49653 120.99767 148 ft 137 kts 63°
2026-05-06 14:25 14.50120 121.00610 36 ft 127 kts 63°
2026-05-06 14:25 14.50474 121.01253 38 ft 78 kts 60°
2026-05-06 14:25 14.50690 121.01633 49 ft 54 kts 51°
2026-05-06 14:26 14.50902 121.01826 50 ft 24 kts 37°
2026-05-06 14:26 14.50934 121.01847 50 ft 0 kts 21°
2026-05-06 14:26 14.50935 121.01847 50 ft 0 kts 25°
2026-05-06 14:27 14.50957 121.01864 50 ft 5 kts 37°
2026-05-06 14:27 14.50959 121.01865 50 ft 0 kts 37°
2026-05-06 14:27 14.50985 121.01891 49 ft 11 kts 52°
2026-05-06 14:28 14.50995 121.01907 50 ft 0 kts 57°
2026-05-06 14:29 14.51028 121.01965 50 ft 16 kts 62°
2026-05-06 14:29 14.51076 121.01981 51 ft 3 kts 315°
2026-05-06 14:29 14.51125 121.01932 52 ft 14 kts 315°
2026-05-06 14:30 14.51197 121.01859 53 ft 14 kts 314°
2026-05-06 14:30 14.51265 121.01788 54 ft 13 kts 315°
2026-05-06 14:30 14.51329 121.01721 55 ft 13 kts 315°
2026-05-06 14:30 14.51390 121.01658 57 ft 11 kts 315°
2026-05-06 14:31 14.51451 121.01596 57 ft 12 kts 315°
2026-05-06 14:31 14.51514 121.01531 58 ft 13 kts 315°
2026-05-06 14:31 14.51584 121.01459 56 ft 15 kts 315°
2026-05-06 14:31 14.51665 121.01376 51 ft 18 kts 315°
2026-05-06 14:32 14.51755 121.01283 48 ft 17 kts 315°
2026-05-06 14:32 14.51828 121.01216 46 ft 7 kts
2026-05-06 14:32 14.51859 121.01236 47 ft 3 kts 39°
2026-05-06 14:32 14.51870 121.01245 48 ft 0 kts 40°
2026-05-06 14:33 14.51876 121.01253 48 ft 4 kts 46°
2026-05-06 14:33 14.51891 121.01267 50 ft 3 kts 44°
2026-05-06 14:33 14.51901 121.01276 50 ft 0 kts 44°
2026-05-06 14:33 14.51902 121.01278 50 ft 0 kts 44°